[[{"header":{"parameterUnit":"m.s-1","parameterCategory":1,"la1":30.2991,"la2":30.254,"lo1":-89.0895,"lo2":-89.0444,"dy":0.0017,"dx":0.0017,"nx":28,"ny":28,"refTime":"2025-09-12T09:00:00:Z","depth":0,"parameterNumber":2,"parameterNumberName":"U-component_of_WINDS"},"data":[0,0,0,0,0,0,0,0,0,0,0,0,0,0,0,0,0,0,0,0,0,0,0,0,0,0,0,0,0,0,0,0,0,0,0,0,0,0,0,0,0,0,0,0,0,0,0,0,0,0,0,0,0,0,0,0,0,0,-1.3574,-1.3574,0,-1.3614,-1.3615,-1.3615,-1.3623,-1.3622,-1.3622,-1.3622,-1.3664,-1.3665,-1.3667,0,0,0,0,0,0,0,0,0,0,0,0,0,-1.3504,-1.3506,-1.3574,-1.3574,-1.3575,-1.3614,-1.3615,-1.3615,-1.3623,-1.3622,-1.3622,-1.3621,-1.3663,-1.3665,-1.3667,0,0,0,0,0,0,0,0,0,0,0,0,0,-1.3539,-1.3506,-1.3574,-1.3583,-1.3584,-1.3614,-1.3615,-1.3616,-1.3623,-1.3622,-1.3622,-1.3621,-1.3663,-1.3665,-1.3667,-1.369,0,0,-1.3674,-1.3674,0,0,0,0,0,0,0,0,-1.3537,-1.3541,-1.3581,-1.3583,-1.3584,-1.3613,-1.3606,-1.3641,-1.3623,-1.3608,-1.3622,-1.3621,-1.3647,-1.3651,-1.3659,-1.3692,-1.3694,-1.3674,-1.3675,-1.3676,-1.3677,0,0,0,0,0,0,0,-1.3534,-1.354,-1.359,-1.3582,-1.3584,-1.3586,-1.359,-1.3613,-1.363,-1.3609,-1.361,-1.3615,-1.3648,-1.3657,-1.366,-1.3695,-1.3674,-1.3676,-1.3677,-1.3678,-1.3751,-1.3751,0,0,0,0,0,0,-1.353,-1.3538,-1.3589,-1.3591,-1.3559,-1.3588,-1.3592,-1.3604,-1.363,-1.3633,-1.3615,-1.3615,-1.3654,-1.3658,-1.3662,-1.3692,-1.3676,-1.3678,-1.3679,-1.375,-1.3751,-1.3751,0,0,0,0,0,0,-1.3529,-1.3535,-1.3587,-1.3565,-1.3571,-1.3589,-1.3602,-1.3605,-1.3615,-1.3634,-1.3637,-1.3621,-1.3654,-1.3659,-1.3684,-1.3694,-1.3679,-1.3681,-1.3749,-1.375,-1.3751,-1.3752,0,0,0,0,0,0,-1.3527,-1.3534,-1.3543,-1.3565,-1.3573,-1.3607,-1.3603,-1.3606,-1.3618,-1.3618,-1.3641,-1.3644,-1.3654,-1.368,-1.3686,-1.3696,-1.3683,-1.3748,-1.375,-1.3751,-1.3751,-1.3753,-1.3754,0,0,0,0,0,-1.3524,-1.3541,-1.3543,-1.3549,-1.3584,-1.3608,-1.3612,-1.3623,-1.3619,-1.3628,-1.3641,-1.3643,-1.3692,-1.3683,-1.3689,-1.37,-1.3748,-1.3749,-1.3751,-1.375,-1.3752,-1.3754,0,0,0,0,0,0,-1.3519,-1.3544,-1.3546,-1.3571,-1.3587,-1.3609,-1.3621,-1.3624,-1.3642,-1.3642,-1.3654,-1.3659,-1.3684,-1.3694,-1.3684,-1.3725,-1.372,-1.3722,-1.3717,-1.3719,-1.3721,-1.3718,-1.3684,0,0,0,0,0,-1.3521,-1.3538,-1.3559,-1.3579,-1.3587,-1.3602,-1.3613,-1.362,-1.3638,-1.3645,-1.3659,-1.3677,-1.3696,-1.3708,-1.3727,-1.3753,-1.3758,-1.3764,-1.3765,-1.3766,-1.3769,-1.3784,-1.3787,-1.3756,-1.3756,-1.3756,0,0,-1.3525,-1.3541,-1.3551,-1.3578,-1.3592,-1.361,-1.3608,-1.3627,-1.3641,-1.3648,-1.3672,-1.3683,-1.3704,-1.3729,-1.3741,-1.3739,-1.3779,-1.3768,-1.3769,-1.3771,-1.3786,-1.3789,-1.3792,-1.3757,-1.3757,-1.3757,0,0,-1.3541,-1.3555,-1.3573,-1.3587,-1.3607,-1.3618,-1.3622,-1.3644,-1.3652,-1.3676,-1.3682,-1.3699,-1.3732,-1.3746,-1.3758,-1.3782,-1.3785,-1.3787,-1.3796,-1.3811,-1.3813,-1.3816,-1.3825,-1.3828,-1.379,-1.379,-1.379,0,-1.3544,-1.3571,-1.3582,-1.3601,-1.3614,-1.3621,-1.364,-1.3653,-1.3678,-1.3687,-1.3684,-1.3726,-1.374,-1.377,-1.3776,-1.3785,-1.3791,-1.3785,-1.3812,-1.3814,-1.3817,-1.3826,-1.3829,-1.379,-1.379,-1.379,-1.379,0,-1.3573,-1.3592,-1.3605,-1.363,-1.3643,-1.3662,-1.3677,-1.369,-1.3696,-1.3707,-1.3733,-1.375,-1.3773,-1.3781,-1.3786,-1.3812,-1.381,-1.3809,-1.3804,-1.382,-1.3828,-1.3832,-1.379,-1.379,-1.379,-1.379,0,0,-1.3587,-1.3618,-1.3623,-1.3635,-1.3659,-1.3674,-1.3694,-1.3717,-1.3728,-1.3746,-1.3763,-1.3791,-1.3792,-1.3805,-1.3813,-1.3826,-1.3845,-1.3824,-1.3825,-1.3828,-1.3875,-1.3876,-1.3879,-1.3847,-1.3848,-1.3849,-1.3874,0,-1.3606,-1.3642,-1.3653,-1.3683,-1.3701,-1.3709,-1.3727,-1.3744,-1.3755,-1.3773,-1.3786,-1.3806,-1.3804,-1.3812,-1.3826,-1.384,-1.3855,-1.3838,-1.3865,-1.3866,-1.386,-1.3884,-1.3884,-1.3907,-1.3877,-1.3878,-1.3878,0,-1.3634,-1.3652,-1.3684,-1.3707,-1.3715,-1.3731,-1.3753,-1.377,-1.379,-1.3797,-1.3813,-1.382,-1.3842,-1.3836,-1.3867,-1.3856,-1.3868,-1.3876,-1.3877,-1.388,-1.3873,-1.3888,-1.3914,-1.3918,-1.3883,-1.3883,-1.3883,0,-1.3641,-1.3674,-1.3698,-1.3708,-1.3735,-1.3746,-1.3758,-1.3778,-1.3791,-1.3811,-1.382,-1.3842,-1.3854,-1.3871,-1.3884,-1.3878,-1.3915,-1.3909,-1.3922,-1.3922,-1.393,-1.3929,-1.3958,-1.3937,-1.3937,-1.3937,-1.3937,0,-1.3662,-1.3681,-1.3702,-1.3717,-1.3739,-1.3752,-1.3774,-1.3787,-1.3804,-1.3822,-1.383,-1.3847,-1.3863,-1.3882,-1.3893,-1.3918,-1.3923,-1.393,-1.3933,-1.393,-1.3929,-1.3938,-1.3937,-1.3938,-1.3937,-1.3937,-1.3937,0,-1.3674,-1.3688,-1.3715,-1.3739,-1.3746,-1.3761,-1.3782,-1.3797,-1.3809,-1.3832,-1.3838,-1.3857,-1.388,-1.3895,-1.3924,-1.3931,-1.3959,-1.3961,-1.3952,-1.3953,-1.3966,-1.3965,-1.4002,-1.4008,-1.3982,-1.3982,-1.3982,0,-1.3686,-1.3701,-1.3727,-1.374,-1.3752,-1.3772,-1.3786,-1.38,-1.3814,-1.3839,-1.3851,-1.3875,-1.3894,-1.3931,-1.3948,-1.3971,-1.3974,-1.3986,-1.3977,-1.3974,-1.3975,-1.3974,-1.3976,-1.3987,-1.3987,-1.3987,-1.3987,0,-1.3707,-1.3714,-1.3733,-1.3756,-1.3772,-1.379,-1.3809,-1.3819,-1.3836,-1.3852,-1.3876,-1.3891,-1.3921,-1.3945,-1.397,-1.3983,-1.3989,-1.399,-1.3994,-1.3991,-1.3986,-1.399,-1.3956,-1.3989,-1.3989,-1.3989,-1.3989,-1.3988,-1.372,-1.3734,-1.3755,-1.3777,-1.3792,-1.381,-1.3825,-1.384,-1.386,-1.3886,-1.3893,-1.3918,-1.3939,-1.3973,-1.3987,-1.4007,-1.4006,-1.4012,-1.4014,-1.4015,-1.4016,-1.3982,-1.4012,-1.4012,-1.4012,-1.4012,-1.4012,0,-1.3741,-1.3756,-1.3776,-1.3801,-1.3819,-1.3823,-1.3844,-1.3858,-1.388,-1.3899,-1.3919,-1.3947,-1.3971,-1.399,-1.4014,-1.4027,-1.403,-1.4033,-1.4032,-1.4036,-1.4015,-1.4009,-1.403,-1.403,-1.403,-1.403,-1.403,-1.403,-1.3755,-1.378,-1.3789,-1.3822,-1.3836,-1.3861,-1.3873,-1.3889,-1.3905,-1.3936,-1.3956,-1.3968,-1.3988,-1.4014,-1.4036,-1.4041,-1.405,-1.4053,-1.4058,-1.4039,-1.4037,-1.4035,-1.4029,-1.4054,-1.4054,-1.4077,-1.4078,-1.4078]},{"header":{"parameterUnit":"m.s-1","parameterCategory":1,"la1":30.2991,"la2":30.254,"lo1":-89.0895,"lo2":-89.0444,"dy":0.0017,"dx":0.0017,"nx":28,"ny":28,"refTime":"2025-09-12T09:00:00:Z","depth":0,"parameterNumber":3,"parameterNumberName":"V-component_of_WINDS"},"data":[0,0,0,0,0,0,0,0,0,0,0,0,0,0,0,0,0,0,0,0,0,0,0,0,0,0,0,0,0,0,0,0,0,0,0,0,0,0,0,0,0,0,0,0,0,0,0,0,0,0,0,0,0,0,0,0,0,0,-1.2591,-1.2592,0,-1.2672,-1.2673,-1.2674,-1.266,-1.2659,-1.2657,-1.2656,-1.2735,-1.2739,-1.2742,0,0,0,0,0,0,0,0,0,0,0,0,0,-1.242,-1.2423,-1.2591,-1.2592,-1.2593,-1.2672,-1.2673,-1.2674,-1.266,-1.2659,-1.2657,-1.2655,-1.2734,-1.2738,-1.2742,0,0,0,0,0,0,0,0,0,0,0,0,0,-1.2497,-1.2424,-1.259,-1.2596,-1.2597,-1.2672,-1.2673,-1.2674,-1.2661,-1.2659,-1.2657,-1.2655,-1.2733,-1.2738,-1.2743,-1.2817,0,0,-1.2759,-1.2761,0,0,0,0,0,0,0,0,-1.2493,-1.2503,-1.2594,-1.2595,-1.2597,-1.2654,-1.2642,-1.2722,-1.2661,-1.2636,-1.2656,-1.2654,-1.271,-1.2717,-1.2736,-1.282,-1.2824,-1.2759,-1.2762,-1.2764,-1.2766,0,0,0,0,0,0,0,-1.2487,-1.25,-1.2623,-1.2595,-1.2597,-1.2593,-1.2601,-1.2657,-1.2684,-1.2638,-1.2638,-1.2648,-1.271,-1.2731,-1.2738,-1.2825,-1.2759,-1.2763,-1.2767,-1.2769,-1.2974,-1.2977,0,0,0,0,0,0,-1.2481,-1.2495,-1.262,-1.2625,-1.2539,-1.2597,-1.2607,-1.2638,-1.2683,-1.2688,-1.2649,-1.2647,-1.2724,-1.2732,-1.2741,-1.2831,-1.2764,-1.2769,-1.2772,-1.2972,-1.2975,-1.2977,0,0,0,0,0,0,-1.2477,-1.2492,-1.2617,-1.256,-1.2576,-1.2603,-1.2637,-1.264,-1.2662,-1.2691,-1.2696,-1.2667,-1.2722,-1.2734,-1.2798,-1.2834,-1.2771,-1.2776,-1.2969,-1.2973,-1.2976,-1.3012,0,0,0,0,0,0,-1.2473,-1.2491,-1.252,-1.2561,-1.2579,-1.2674,-1.2639,-1.2643,-1.2671,-1.2668,-1.2709,-1.2713,-1.2722,-1.2791,-1.2804,-1.284,-1.278,-1.2966,-1.2971,-1.2975,-1.3008,-1.3017,-1.3024,0,0,0,0,0,-1.2466,-1.2526,-1.2522,-1.2537,-1.2616,-1.2676,-1.2687,-1.2696,-1.2674,-1.2703,-1.2722,-1.2712,-1.2828,-1.2798,-1.2812,-1.285,-1.2964,-1.2969,-1.2975,-1.3005,-1.3015,-1.3024,0,0,0,0,0,0,-1.2487,-1.2531,-1.2527,-1.2602,-1.2636,-1.2674,-1.2711,-1.2707,-1.2746,-1.2742,-1.2751,-1.276,-1.2826,-1.2844,-1.281,-1.2924,-1.2892,-1.2901,-1.291,-1.2921,-1.2928,-1.2923,-1.2784,0,0,0,0,0,-1.2501,-1.2547,-1.2583,-1.2645,-1.2663,-1.2684,-1.2711,-1.2715,-1.275,-1.2764,-1.2788,-1.2821,-1.2865,-1.2893,-1.2935,-1.301,-1.3019,-1.3043,-1.3051,-1.3058,-1.3065,-1.3107,-1.3119,-1.2995,-1.2995,-1.2995,0,0,-1.2528,-1.2558,-1.2587,-1.265,-1.2677,-1.2725,-1.2696,-1.2747,-1.2782,-1.2771,-1.2835,-1.2853,-1.289,-1.2961,-1.2993,-1.2978,-1.3101,-1.3065,-1.3069,-1.3074,-1.3114,-1.3126,-1.3136,-1.2999,-1.2998,-1.2997,0,0,-1.2604,-1.2631,-1.2687,-1.2715,-1.2756,-1.277,-1.2784,-1.2823,-1.2836,-1.29,-1.2893,-1.2933,-1.3008,-1.3036,-1.306,-1.3146,-1.3139,-1.3159,-1.3202,-1.3243,-1.3252,-1.3261,-1.3293,-1.3305,-1.3166,-1.3167,-1.3167,0,-1.2633,-1.2706,-1.2716,-1.2769,-1.2797,-1.279,-1.2846,-1.2872,-1.2924,-1.2944,-1.2926,-1.3021,-1.3046,-1.3123,-1.3145,-1.3163,-1.3179,-1.3156,-1.325,-1.3259,-1.3268,-1.3298,-1.331,-1.3169,-1.3169,-1.3168,-1.3168,0,-1.2741,-1.2791,-1.2831,-1.2884,-1.2916,-1.297,-1.2987,-1.3018,-1.302,-1.3035,-1.3101,-1.313,-1.3178,-1.3197,-1.3198,-1.3275,-1.3264,-1.3248,-1.3217,-1.3282,-1.3311,-1.3323,-1.3172,-1.3172,-1.3171,-1.317,0,0,-1.2832,-1.2891,-1.2905,-1.293,-1.2975,-1.3014,-1.3067,-1.3116,-1.3143,-1.3179,-1.3224,-1.3288,-1.3275,-1.3301,-1.3305,-1.3341,-1.3409,-1.3321,-1.3322,-1.3338,-1.3497,-1.3511,-1.3524,-1.3404,-1.3406,-1.3408,-1.3495,0,-1.2913,-1.301,-1.3021,-1.3107,-1.3154,-1.3148,-1.3195,-1.3227,-1.3243,-1.3284,-1.33,-1.3346,-1.3323,-1.334,-1.3375,-1.3394,-1.3442,-1.3387,-1.3446,-1.3448,-1.3439,-1.3539,-1.3553,-1.3634,-1.3506,-1.3508,-1.3509,0,-1.3022,-1.3063,-1.3155,-1.3195,-1.3215,-1.3257,-1.3303,-1.3342,-1.3379,-1.3387,-1.3418,-1.3418,-1.3472,-1.3437,-1.3512,-1.3475,-1.3499,-1.3512,-1.3515,-1.3523,-1.3484,-1.3551,-1.3659,-1.3672,-1.3527,-1.3526,-1.3524,0,-1.3082,-1.316,-1.3225,-1.3246,-1.3294,-1.3324,-1.3345,-1.3379,-1.3408,-1.3448,-1.3467,-1.3511,-1.3536,-1.357,-1.3581,-1.3555,-1.3656,-1.3622,-1.3665,-1.3665,-1.3688,-1.3687,-1.3804,-1.3701,-1.3701,-1.37,-1.37,0,-1.3172,-1.3229,-1.3253,-1.3293,-1.3356,-1.3367,-1.3428,-1.3448,-1.3478,-1.3522,-1.3518,-1.3558,-1.357,-1.3612,-1.3621,-1.3682,-1.3693,-1.3701,-1.3703,-1.3703,-1.3702,-1.372,-1.3716,-1.3704,-1.3703,-1.3702,-1.3702,0,-1.3251,-1.3269,-1.334,-1.338,-1.3392,-1.3436,-1.347,-1.3508,-1.3523,-1.3578,-1.3592,-1.3615,-1.3664,-1.3679,-1.3737,-1.3743,-1.3816,-1.3812,-1.3805,-1.3805,-1.3848,-1.3845,-1.3983,-1.4002,-1.3884,-1.3885,-1.3886,0,-1.3308,-1.3352,-1.3397,-1.3427,-1.345,-1.3497,-1.3528,-1.3539,-1.3571,-1.3616,-1.3649,-1.3698,-1.3738,-1.3817,-1.3839,-1.3884,-1.3882,-1.3927,-1.3888,-1.3887,-1.3885,-1.3883,-1.3888,-1.3935,-1.3936,-1.3937,-1.3938,0,-1.3409,-1.3417,-1.3461,-1.351,-1.3546,-1.3584,-1.3621,-1.3645,-1.3661,-1.3696,-1.3748,-1.378,-1.3841,-1.389,-1.3936,-1.3956,-1.395,-1.395,-1.3962,-1.3963,-1.3958,-1.3963,-1.3826,-1.3947,-1.3946,-1.3945,-1.3945,-1.3944,-1.348,-1.352,-1.3558,-1.3608,-1.3637,-1.3672,-1.3711,-1.3731,-1.3775,-1.3827,-1.383,-1.3887,-1.3922,-1.3983,-1.4006,-1.4049,-1.4035,-1.4053,-1.4058,-1.4063,-1.4068,-1.395,-1.4057,-1.4057,-1.4056,-1.4056,-1.4056,0,-1.3583,-1.3608,-1.3654,-1.3706,-1.3745,-1.3737,-1.3777,-1.3811,-1.3861,-1.3895,-1.3935,-1.3995,-1.4042,-1.4068,-1.4115,-1.4145,-1.4143,-1.4157,-1.4156,-1.4161,-1.4076,-1.4061,-1.4157,-1.4157,-1.4157,-1.4157,-1.4157,-1.4157,-1.3641,-1.3708,-1.3719,-1.38,-1.3824,-1.3881,-1.3904,-1.3936,-1.3963,-1.4031,-1.4071,-1.4088,-1.4119,-1.4168,-1.4211,-1.4217,-1.4236,-1.4251,-1.4256,-1.4177,-1.4166,-1.4157,-1.4143,-1.4255,-1.4255,-1.4337,-1.4338,-1.4339]}]]